Billings, MT

8:25 AM MDT on April 23, 2017 (GMT -0600)
Billings Logan International

Weather History for KBIL - February, 2013

Change the Weather History Date:

Wednesday, February 27, 2013

  Actual Average Record
Temperature  
Mean Temperature 34 °F 33 °F  
Max Temperature 47 °F 44 °F 70 °F (1992)
Min Temperature 20 °F 23 °F -15 °F (1962)
Degree Days  
Heating Degree Days 31 32  
Month to date heating degree days 856 937  
Since 1 July heating degree days 4535 4933  
Cooling Degree Days 0 0  
Month to date cooling degree days 0 0  
Year to date cooling degree days 0 0  
Moisture  
Dew Point 15 °F    
Average Humidity 48    
Maximum Humidity 69    
Minimum Humidity 27    
Precipitation  
Precipitation 0.00 in 0.02 in 0.37 in (1970)
Month to date precipitation 0.29 0.46  
Year to date precipitation 0.88 0.94  
Snow  
Snow 0.00 in 0.20 in 6.80 in (1951)
Month to date snowfall 4.4 5.9  
Since 1 July snowfall 32.1 34.2  
Snow Depth 0.00 in    
Sea Level Pressure  
Sea Level Pressure 30.25 in    
Wind  
Wind Speed 12 mph (WSW)    
Max Wind Speed 21 mph    
Max Gust Speed 27 mph    
Visibility 10 miles    
Events      
T = Trace of Precipitation, MM = Missing Value Source: NWS Daily Summary

Daily Weather History Graph

Daily Weather History Graph

Search for Another Location

Airport or City:

Trip Planner

Search our weather history database for the weather conditions in past years. The results will help you decide how hot, cold, wet, or windy it might be!

Date:

Astronomy

Feb. 27, 2013 Rise Set
Actual Time 6:55 AM MST 5:58 PM MST
Civil Twilight 6:25 AM MST 6:28 PM MST
Nautical Twilight 5:51 AM MST 7:02 PM MST
Astronomical Twilight 5:16 AM MST 7:37 PM MST
Moon 8:34 PM MST (2/27) 7:24 AM MST (2/27)
Length of Visible Light 12h 02m
Length of Day
11h 02m
Waning Gibbous, 96% of the Moon is Illuminated
Feb 27
Waning Gibbous
Mar 4
Last Quarter
Mar 11
New
Mar 19
First Quarter
Mar 27
Full

Hourly Weather History & Observations

Time (MST) Temp. Windchill Dew Point Humidity Pressure Visibility Wind Dir Wind Speed Gust Speed Precip Events Conditions
12:53 AM 28.0 °F - 19.0 °F 69% 30.26 in 10.0 mi Calm Calm - N/A   Mostly Cloudy
1:53 AM 28.0 °F 19.3 °F 19.0 °F 69% 30.27 in 10.0 mi SW 9.2 mph - N/A   Mostly Cloudy
2:53 AM 28.0 °F 18.1 °F 19.0 °F 69% 30.27 in 10.0 mi SW 11.5 mph - N/A   Mostly Cloudy
3:53 AM 26.1 °F 15.0 °F 17.1 °F 69% 30.28 in 10.0 mi SW 12.7 mph - N/A   Mostly Cloudy
4:53 AM 26.6 °F 15.2 °F 15.8 °F 64% 30.20 in 10.0 mi WSW 13.8 mph - N/A   Partly Cloudy
5:53 AM 25.0 °F 14.8 °F 15.1 °F 66% 30.30 in 10.0 mi SW 10.4 mph - N/A   Partly Cloudy
6:53 AM 23.0 °F 13.1 °F 14.0 °F 68% 30.32 in 10.0 mi SW 9.2 mph - N/A   Partly Cloudy
7:53 AM 23.0 °F 13.1 °F 14.0 °F 68% 30.33 in 10.0 mi SW 9.2 mph - N/A   Partly Cloudy
8:53 AM 25.0 °F 13.1 °F 15.1 °F 66% 30.32 in 10.0 mi SW 13.8 mph - N/A   Partly Cloudy
9:53 AM 30.0 °F 20.0 °F 16.0 °F 56% 30.31 in 10.0 mi WSW 12.7 mph - N/A   Partly Cloudy
10:53 AM 35.1 °F 26.4 °F 17.1 °F 48% 30.28 in 10.0 mi SSW 12.7 mph - N/A   Partly Cloudy
11:53 AM 39.0 °F 31.0 °F 14.0 °F 36% 30.27 in 10.0 mi SW 13.8 mph - N/A   Partly Cloudy
12:53 PM 44.1 °F 37.4 °F 12.0 °F 27% 30.23 in 10.0 mi West 13.8 mph - N/A   Partly Cloudy
12:59 PM 43.0 °F 36.0 °F 12.0 °F 28% 30.16 in 10.0 mi WNW 13.8 mph - N/A   Partly Cloudy
1:53 PM 45.0 °F 41.2 °F 12.0 °F 26% 30.20 in 10.0 mi NW 6.9 mph 17.3 mph N/A   Scattered Clouds
2:53 PM 42.1 °F 35.7 °F 12.0 °F 29% 30.21 in 10.0 mi WSW 11.5 mph - N/A   Overcast
3:53 PM 43.0 °F 36.0 °F 12.9 °F 30% 30.20 in 10.0 mi SSW 13.8 mph - N/A   Overcast
4:53 PM 43.0 °F 34.8 °F 10.9 °F 27% 30.20 in 10.0 mi WNW 18.4 mph - N/A   Mostly Cloudy
5:53 PM 37.9 °F 30.9 °F 12.9 °F 36% 30.22 in 10.0 mi WSW 10.4 mph - N/A   Scattered Clouds
6:53 PM 35.1 °F 25.2 °F 14.0 °F 42% 30.25 in 10.0 mi WSW 16.1 mph - N/A   Scattered Clouds
7:53 PM 34.0 °F 23.4 °F 14.0 °F 44% 30.25 in 10.0 mi WSW 17.3 mph - N/A   Mostly Cloudy
8:53 PM 34.0 °F 23.8 °F 15.1 °F 46% 30.26 in 10.0 mi WSW 16.1 mph - N/A   Overcast
9:53 PM 35.1 °F 25.9 °F 15.1 °F 44% 30.25 in 10.0 mi WSW 13.8 mph - N/A   Overcast
10:53 PM 35.1 °F 26.9 °F 15.1 °F 44% 30.24 in 10.0 mi SW 11.5 mph 23.0 mph N/A   Overcast
11:53 PM 33.1 °F 23.9 °F 15.1 °F 48% 30.23 in 10.0 mi SW 12.7 mph - N/A   Overcast